Tracking 19125 objects as of 19-Apr-2018
HD Live streaming from Space Station
objects crossing your sky now

EXPLORER 26 (EPE-D)

Track EXPLORER 26 (EPE-D) now!
10-day predictions
EXPLORER 26 (EPE-D) is classified as:


NORAD ID: 963
Int'l Code: 1964-086A
Perigee: 258.1 km
Apogee: 1,814.4 km
Inclination: 19.7 °
Period: 105.7 minutes
Semi major axis: 7407 km
RCS: 0.6916 m2 (medium)
Launch date: December 21, 1964
Source: United States (US)
Launch site: AIR FORCE EASTERN TEST RANGE (AFETR)
aabbcc
Your satellite tracking list
Your tracking list is empty




NASA's NSSDC Master Catalog

Two Line Element Set (TLE):
1 00963U 64086A   18108.39927771  .00053389 -10467-4  54780-3 0  9993
2 00963  19.7123 183.7761 1050527 120.9353 249.8525 13.61825387 83379
Source of the keplerian elements: AFSPC